Regional Weather Roundup
Issued by NWS

Home | Current Version | Previous Version | Graphics & Text | Print | Product List | Glossary On
Versions: 1 2 3 4 5 6 7 8 9 10 11 12 13 14 15 16 17 18 19 20 21 22 23 24 25 26 27 28 29 30 31 32 33 34 35 36 37 38 39 40 41 42 43 44 45 46 47 48 49 50
000
ASUS43 KBIS 251110
RWRND

NORTH DAKOTA REGIONAL WEATHER ROUNDUP
NATIONAL WEATHER SERVICE BISMARCK ND
600 AM CDT SAT OCT 25 2014

NOTE: "FAIR" INDICATES FEW OR NO CLOUDS BELOW 12,000 FEET WITH NO
SIGNIFICANT WEATHER AND/OR OBSTRUCTIONS TO VISIBILITY.


NDZ001>003-009>011-017-251200-
NORTHWEST NORTH DAKOTA

CITY           SKY/WX    TMP DP  RH WIND       PRES   REMARKS
WILLISTON      PTCLDY    37  30  75 CALM      30.11R
MINOT          MOCLDY    43  29  57 W8        30.09R
MINOT AFB      MOCLDY    36  31  80 W10       30.08R
$$

NDZ018>021-031>035-040>046-251200-
SOUTHWEST NORTH DAKOTA

CITY           SKY/WX    TMP DP  RH WIND       PRES   REMARKS
BISMARCK       MOCLDY    45  33  63 W6        30.11R
DICKINSON      MOCLDY    45  30  55 NW5       30.09F
GARRISON         N/A     40  32  73 NW6       30.09S
HETTINGER ARPT CLEAR     34  28  79 W3        30.15R
$$

NDZ004>008-012>016-024-026-027-054-251200-
NORTHEAST NORTH DAKOTA

CITY           SKY/WX    TMP DP  RH WIND       PRES   REMARKS
GRAND FORKS    PTCLDY    40  32  73 W6        30.00R
GRND FRKS AFB  PTCLDY    42  34  71 NW7       30.01R
DEVILS LAKE    PTCLDY    43  28  56 W12       30.02S
$$

NDZ022-023-025-028>030-036>039-047>053-251200-
SOUTHEAST NORTH DAKOTA

CITY           SKY/WX    TMP DP  RH WIND       PRES   REMARKS
FARGO          CLOUDY    43  32  65 W9        30.04R
JAMESTOWN      PTCLDY    38  32  79 NW6       30.07R
$$




USA.gov is the U.S. government's official web portal to all federal, state and local government web resources and services.